User: anonymous   Login
Location: Sternwarte Hubelmatt
(47.0367°N, 8.3053°E)
Time: 21:08:46
(UTC+02:00)
Language:

XW-2C - Orbit

View from above orbital plane
View from above orbital plane
View from above satellite
View from above satellite

Ground track
Ground track

The orbit data is extracted from the following two-line orbital elements,

1 40906U 15049H   25047.62605869  .06460715  25777-5  82494-3 0  9990
2 40906  97.4284  83.7622 0006300 238.5188 121.5494 16.35922890522636
Epoch (UTC): 16 February 2025 15:01:31
Eccentricity: 0.0006300
inclination: 97.4284°
perigee height: 172 km
apogee height: 181 km
right ascension of ascending node: 83.7622°
argument of perigee: 238.5188°
revolutions per day: 16.35922890
mean anomaly at epoch: 121.5494°
orbit number at epoch: 52263

The dashed part of the orbit path shows where the satellite is in the earth's shadow,  

DLR